Year,Month,Day,Hour,Minute,Value (Times are PST for temperature in C)
2014,07,10,00,00,18.20
2014,07,10,00,01,18.20
2014,07,10,00,02,18.20
2014,07,10,00,03,18.20
2014,07,10,00,04,18.20
2014,07,10,00,05,18.20
2014,07,10,00,06,18.20
2014,07,10,00,07,18.20
2014,07,10,00,08,18.10
2014,07,10,00,09,18.10
2014,07,10,00,10,18.10
2014,07,10,00,11,18.10
2014,07,10,00,12,18.10
2014,07,10,00,13,18.00
2014,07,10,00,14,18.00
2014,07,10,00,15,18.00
2014,07,10,00,16,18.00
2014,07,10,00,17,18.00
2014,07,10,00,18,18.00
2014,07,10,00,19,18.00
2014,07,10,00,20,18.00
2014,07,10,00,21,18.00
2014,07,10,00,22,17.90
2014,07,10,00,23,17.90
2014,07,10,00,24,17.90
2014,07,10,00,25,18.00
2014,07,10,00,26,18.00
2014,07,10,00,27,18.00
2014,07,10,00,28,18.10
2014,07,10,00,29,18.10
2014,07,10,00,30,18.10
2014,07,10,00,31,18.10
2014,07,10,00,32,18.10
2014,07,10,00,33,18.10
2014,07,10,00,34,18.10
2014,07,10,00,35,18.10
2014,07,10,00,36,18.10
2014,07,10,00,37,18.10
2014,07,10,00,38,18.10
2014,07,10,00,39,18.10
2014,07,10,00,40,18.00
2014,07,10,00,41,18.00
2014,07,10,00,42,18.00
2014,07,10,00,43,17.90
2014,07,10,00,44,17.90
2014,07,10,00,45,17.90
2014,07,10,00,46,17.80
2014,07,10,00,47,17.80
2014,07,10,00,48,17.80
2014,07,10,00,49,17.80
2014,07,10,00,50,17.80
2014,07,10,00,51,17.70
2014,07,10,00,52,17.70
2014,07,10,00,53,17.70
2014,07,10,00,54,17.70
2014,07,10,00,55,17.70
2014,07,10,00,56,17.70
2014,07,10,00,57,17.70
2014,07,10,00,58,17.70
2014,07,10,00,59,17.70
2014,07,10,01,00,17.70
2014,07,10,01,01,17.70
2014,07,10,01,02,17.70
2014,07,10,01,03,17.80
2014,07,10,01,04,17.80
2014,07,10,01,05,17.80
2014,07,10,01,06,17.80
2014,07,10,01,07,17.80
2014,07,10,01,08,17.80
2014,07,10,01,09,17.80
2014,07,10,01,10,17.80
2014,07,10,01,11,17.80
2014,07,10,01,12,17.80
2014,07,10,01,13,17.80
2014,07,10,01,14,17.90
2014,07,10,01,15,17.80
2014,07,10,01,16,17.80
2014,07,10,01,17,17.80
2014,07,10,01,18,17.80
2014,07,10,01,19,17.80
2014,07,10,01,20,17.80
2014,07,10,01,21,17.80
2014,07,10,01,22,17.80
2014,07,10,01,23,17.70
2014,07,10,01,24,17.70
2014,07,10,01,25,17.70
2014,07,10,01,26,17.70
2014,07,10,01,27,17.70
2014,07,10,01,28,17.70
2014,07,10,01,29,17.70
2014,07,10,01,30,17.70
2014,07,10,01,31,17.60
2014,07,10,01,32,17.60
2014,07,10,01,33,17.60
2014,07,10,01,34,17.50
2014,07,10,01,35,17.50
2014,07,10,01,36,17.40
2014,07,10,01,37,17.40
2014,07,10,01,38,17.40
2014,07,10,01,39,17.40
2014,07,10,01,40,17.30
2014,07,10,01,41,17.30
2014,07,10,01,42,17.30
2014,07,10,01,43,17.30
2014,07,10,01,44,17.40
2014,07,10,01,45,17.40
2014,07,10,01,46,17.40
2014,07,10,01,47,17.40
2014,07,10,01,48,17.40
2014,07,10,01,49,17.40
2014,07,10,01,50,17.40
2014,07,10,01,51,17.40
2014,07,10,01,52,17.30
2014,07,10,01,53,17.30
2014,07,10,01,54,17.30
2014,07,10,01,55,17.30
2014,07,10,01,56,17.30
2014,07,10,01,57,17.20
2014,07,10,01,58,17.20
2014,07,10,01,59,17.20
2014,07,10,02,00,17.20
2014,07,10,02,01,17.20
2014,07,10,02,02,17.20
2014,07,10,02,03,17.20
2014,07,10,02,04,17.10
2014,07,10,02,05,17.10
2014,07,10,02,06,17.10
2014,07,10,02,07,17.10
2014,07,10,02,08,17.10
2014,07,10,02,09,17.10
2014,07,10,02,10,17.00
2014,07,10,02,11,17.00
2014,07,10,02,12,17.00
2014,07,10,02,13,16.90
2014,07,10,02,14,16.90
2014,07,10,02,15,16.90
2014,07,10,02,16,16.90
2014,07,10,02,17,16.90
2014,07,10,02,18,16.90
2014,07,10,02,19,16.90
2014,07,10,02,20,16.90
2014,07,10,02,21,16.90
2014,07,10,02,22,16.90
2014,07,10,02,23,16.90
2014,07,10,02,24,16.90
2014,07,10,02,25,16.90
2014,07,10,02,26,16.90
2014,07,10,02,27,16.90
2014,07,10,02,28,16.90
2014,07,10,02,29,16.90
2014,07,10,02,30,16.90
2014,07,10,02,31,16.90
2014,07,10,02,32,16.90
2014,07,10,02,33,16.90
2014,07,10,02,34,16.90
2014,07,10,02,35,16.90
2014,07,10,02,36,16.90
2014,07,10,02,37,16.90
2014,07,10,02,38,16.90
2014,07,10,02,39,16.90
2014,07,10,02,40,17.00
2014,07,10,02,41,17.00
2014,07,10,02,42,17.00
2014,07,10,02,43,17.00
2014,07,10,02,44,17.00
2014,07,10,02,45,17.00
2014,07,10,02,46,17.00
2014,07,10,02,47,16.90
2014,07,10,02,48,16.90
2014,07,10,02,49,16.90
2014,07,10,02,50,16.90
2014,07,10,02,51,16.90
2014,07,10,02,52,16.80
2014,07,10,02,53,16.80
2014,07,10,02,54,16.80
2014,07,10,02,55,16.80
2014,07,10,02,56,16.80
2014,07,10,02,57,16.80
2014,07,10,02,58,16.80
2014,07,10,02,59,16.80
2014,07,10,03,00,16.80
2014,07,10,03,01,16.80
2014,07,10,03,02,16.80
2014,07,10,03,03,16.80
2014,07,10,03,04,16.70
2014,07,10,03,05,16.70
2014,07,10,03,06,16.70
2014,07,10,03,07,16.70
2014,07,10,03,08,16.70
2014,07,10,03,09,16.60
2014,07,10,03,10,16.60
2014,07,10,03,11,16.60
2014,07,10,03,12,16.60
2014,07,10,03,13,16.60
2014,07,10,03,14,16.50
2014,07,10,03,15,16.50
2014,07,10,03,16,16.40
2014,07,10,03,17,16.40
2014,07,10,03,18,16.40
2014,07,10,03,19,16.40
2014,07,10,03,20,16.30
2014,07,10,03,21,16.30
2014,07,10,03,22,16.30
2014,07,10,03,23,16.30
2014,07,10,03,24,16.30
2014,07,10,03,25,16.30
2014,07,10,03,26,16.30
2014,07,10,03,27,16.20
2014,07,10,03,28,16.20
2014,07,10,03,29,16.20
2014,07,10,03,30,16.20
2014,07,10,03,31,16.20
2014,07,10,03,32,16.20
2014,07,10,03,33,16.20
2014,07,10,03,34,16.20
2014,07,10,03,35,16.20
2014,07,10,03,36,16.20
2014,07,10,03,37,16.20
2014,07,10,03,38,16.20
2014,07,10,03,39,16.20
2014,07,10,03,40,16.30
2014,07,10,03,41,16.30
2014,07,10,03,42,16.30
2014,07,10,03,43,16.30
2014,07,10,03,44,16.30
2014,07,10,03,45,16.30
2014,07,10,03,46,16.30
2014,07,10,03,47,16.30
2014,07,10,03,48,16.30
2014,07,10,03,49,16.30
2014,07,10,03,50,16.30
2014,07,10,03,51,16.30
2014,07,10,03,52,16.30
2014,07,10,03,53,16.30
2014,07,10,03,54,16.30
2014,07,10,03,55,16.40
2014,07,10,03,56,16.40
2014,07,10,03,57,16.40
2014,07,10,03,58,16.40
2014,07,10,03,59,16.40
2014,07,10,04,00,16.40
2014,07,10,04,01,16.30
2014,07,10,04,02,16.30
2014,07,10,04,03,16.30
2014,07,10,04,04,16.30
2014,07,10,04,05,16.30
2014,07,10,04,06,16.30
2014,07,10,04,07,16.30
2014,07,10,04,08,16.30
2014,07,10,04,09,16.30
2014,07,10,04,10,16.30
2014,07,10,04,11,16.20
2014,07,10,04,12,16.20
2014,07,10,04,13,16.20
2014,07,10,04,14,16.20
2014,07,10,04,15,16.20
2014,07,10,04,16,16.20
2014,07,10,04,17,16.20
2014,07,10,04,18,16.10
2014,07,10,04,19,16.10
2014,07,10,04,20,16.10
2014,07,10,04,21,16.00
2014,07,10,04,22,16.00
2014,07,10,04,23,15.90
2014,07,10,04,24,15.90
2014,07,10,04,25,15.90
2014,07,10,04,26,15.90
2014,07,10,04,27,15.90
2014,07,10,04,28,15.80
2014,07,10,04,29,15.80
2014,07,10,04,30,15.80
2014,07,10,04,31,15.80
2014,07,10,04,32,15.80
2014,07,10,04,33,15.80
2014,07,10,04,34,15.70
2014,07,10,04,35,15.70
2014,07,10,04,36,15.70
2014,07,10,04,37,15.70
2014,07,10,04,38,15.70
2014,07,10,04,39,15.70
2014,07,10,04,40,15.80
2014,07,10,04,41,15.80
2014,07,10,04,42,15.80
2014,07,10,04,43,15.80
2014,07,10,04,44,15.80
2014,07,10,04,45,15.80
2014,07,10,04,46,15.80
2014,07,10,04,47,15.80
2014,07,10,04,48,15.80
2014,07,10,04,49,15.80
2014,07,10,04,50,15.80
2014,07,10,04,51,15.80
2014,07,10,04,52,15.80
2014,07,10,04,53,15.80
2014,07,10,04,54,15.80
2014,07,10,04,55,15.80
2014,07,10,04,56,15.80
2014,07,10,04,57,15.70
2014,07,10,04,58,15.70
2014,07,10,04,59,15.70
2014,07,10,05,00,15.70
2014,07,10,05,01,15.80
2014,07,10,05,02,15.80
2014,07,10,05,03,15.80
2014,07,10,05,04,15.70
2014,07,10,05,05,15.70
2014,07,10,05,06,15.70
2014,07,10,05,07,15.70
2014,07,10,05,08,15.70
2014,07,10,05,09,15.70
2014,07,10,05,10,15.70
2014,07,10,05,11,15.60
2014,07,10,05,12,15.60
2014,07,10,05,13,15.60
2014,07,10,05,14,15.60
2014,07,10,05,15,15.50
2014,07,10,05,16,15.50
2014,07,10,05,17,15.50
2014,07,10,05,18,15.50
2014,07,10,05,19,15.50
2014,07,10,05,20,15.50
2014,07,10,05,21,15.40
2014,07,10,05,22,15.40
2014,07,10,05,23,15.40
2014,07,10,05,24,15.40
2014,07,10,05,25,15.40
2014,07,10,05,26,15.40
2014,07,10,05,27,15.40
2014,07,10,05,28,15.30
2014,07,10,05,29,15.30
2014,07,10,05,30,15.30
2014,07,10,05,31,15.30
2014,07,10,05,32,15.30
2014,07,10,05,33,15.30
2014,07,10,05,34,15.30
2014,07,10,05,35,15.30
2014,07,10,05,36,15.30
2014,07,10,05,37,15.20
2014,07,10,05,38,15.20
2014,07,10,05,39,15.20
2014,07,10,05,40,15.20
2014,07,10,05,41,15.20
2014,07,10,05,42,15.20
2014,07,10,05,43,15.20
2014,07,10,05,44,15.20
2014,07,10,05,45,15.20
2014,07,10,05,46,15.20
2014,07,10,05,47,15.20
2014,07,10,05,48,15.20
2014,07,10,05,49,15.20
2014,07,10,05,50,15.20
2014,07,10,05,51,15.20
2014,07,10,05,52,15.20
2014,07,10,05,53,15.20
2014,07,10,05,54,15.20
2014,07,10,05,55,15.20
2014,07,10,05,56,15.20
2014,07,10,05,57,15.20
2014,07,10,05,58,15.20
2014,07,10,05,59,15.10
2014,07,10,06,00,15.10
2014,07,10,06,01,15.10
2014,07,10,06,02,15.10
2014,07,10,06,03,15.10
2014,07,10,06,04,15.10
2014,07,10,06,05,15.10
2014,07,10,06,06,15.10
2014,07,10,06,07,15.10
2014,07,10,06,08,15.00
2014,07,10,06,09,15.00
2014,07,10,06,10,15.00
2014,07,10,06,11,15.00
2014,07,10,06,12,15.00
2014,07,10,06,13,14.90
2014,07,10,06,14,14.90
2014,07,10,06,15,14.90
2014,07,10,06,16,14.90
2014,07,10,06,17,14.90
2014,07,10,06,18,14.90
2014,07,10,06,19,14.90
2014,07,10,06,20,14.90
2014,07,10,06,21,14.90
2014,07,10,06,22,15.00
2014,07,10,06,23,15.00
2014,07,10,06,24,15.00
2014,07,10,06,25,15.00
2014,07,10,06,26,15.00
2014,07,10,06,27,15.10
2014,07,10,06,28,15.10
2014,07,10,06,29,15.10
2014,07,10,06,30,15.10
2014,07,10,06,31,15.10
2014,07,10,06,32,15.10
2014,07,10,06,33,15.20
2014,07,10,06,34,15.20
2014,07,10,06,35,15.20
2014,07,10,06,36,15.20
2014,07,10,06,37,15.20
2014,07,10,06,38,15.20
2014,07,10,06,39,15.30
2014,07,10,06,40,15.30
2014,07,10,06,41,15.30
2014,07,10,06,42,15.30
2014,07,10,06,43,15.30
2014,07,10,06,44,15.30
2014,07,10,06,45,15.40
2014,07,10,06,46,15.40
2014,07,10,06,47,15.40
2014,07,10,06,48,15.40
2014,07,10,06,49,15.40
2014,07,10,06,50,15.50
2014,07,10,06,51,15.50
2014,07,10,06,52,15.50
2014,07,10,06,53,15.60
2014,07,10,06,54,15.60
2014,07,10,06,55,15.60
2014,07,10,06,56,15.60
2014,07,10,06,57,15.70
2014,07,10,06,58,15.70
2014,07,10,06,59,15.70
2014,07,10,07,00,15.70
2014,07,10,07,01,15.70
2014,07,10,07,02,15.70
2014,07,10,07,03,15.70
2014,07,10,07,04,15.70
2014,07,10,07,05,15.80
2014,07,10,07,06,15.80
2014,07,10,07,07,15.80
2014,07,10,07,08,15.80
2014,07,10,07,09,15.80
2014,07,10,07,10,15.80
2014,07,10,07,11,15.80
2014,07,10,07,12,15.80
2014,07,10,07,13,15.90
2014,07,10,07,14,15.90
2014,07,10,07,15,15.90
2014,07,10,07,16,15.90
2014,07,10,07,17,15.90
2014,07,10,07,18,15.90
2014,07,10,07,19,15.90
2014,07,10,07,20,15.90
2014,07,10,07,21,15.90
2014,07,10,07,22,15.90
2014,07,10,07,23,15.90
2014,07,10,07,24,15.90
2014,07,10,07,25,15.90
2014,07,10,07,26,15.90
2014,07,10,07,27,16.00
2014,07,10,07,28,16.00
2014,07,10,07,29,16.00
2014,07,10,07,30,16.10
2014,07,10,07,31,16.10
2014,07,10,07,32,16.10
2014,07,10,07,33,16.10
2014,07,10,07,34,16.20
2014,07,10,07,35,16.20
2014,07,10,07,36,16.20
2014,07,10,07,37,16.20
2014,07,10,07,38,16.20
2014,07,10,07,39,16.30
2014,07,10,07,40,16.30
2014,07,10,07,41,16.30
2014,07,10,07,42,16.30
2014,07,10,07,43,16.40
2014,07,10,07,44,16.40
2014,07,10,07,45,16.40
2014,07,10,07,46,16.40
2014,07,10,07,47,16.50
2014,07,10,07,48,16.50
2014,07,10,07,49,16.50
2014,07,10,07,50,16.60
2014,07,10,07,51,16.60
2014,07,10,07,52,16.70
2014,07,10,07,53,16.70
2014,07,10,07,54,16.70
2014,07,10,07,55,16.70
2014,07,10,07,56,16.70
2014,07,10,07,57,16.80
2014,07,10,07,58,16.80
2014,07,10,07,59,16.80
2014,07,10,08,00,16.90
2014,07,10,08,01,16.90
2014,07,10,08,02,16.90
2014,07,10,08,03,16.90
2014,07,10,08,04,17.00
2014,07,10,08,05,17.00
2014,07,10,08,06,17.00
2014,07,10,08,07,17.10
2014,07,10,08,08,17.10
2014,07,10,08,09,17.10
2014,07,10,08,10,17.20
2014,07,10,08,11,17.20
2014,07,10,08,12,17.20
2014,07,10,08,13,17.20
2014,07,10,08,14,17.10
2014,07,10,08,15,17.10
2014,07,10,08,16,17.10
2014,07,10,08,17,17.10
2014,07,10,08,18,17.10
2014,07,10,08,19,17.20
2014,07,10,08,20,17.20
2014,07,10,08,21,17.20
2014,07,10,08,22,17.30
2014,07,10,08,23,17.30
2014,07,10,08,24,17.30
2014,07,10,08,25,17.30
2014,07,10,08,26,17.30
2014,07,10,08,27,17.30
2014,07,10,08,28,17.30
2014,07,10,08,29,17.30
2014,07,10,08,30,17.30
2014,07,10,08,31,17.30
2014,07,10,08,32,17.30
2014,07,10,08,33,17.30
2014,07,10,08,34,17.30
2014,07,10,08,35,17.30
2014,07,10,08,36,17.40
2014,07,10,08,37,17.40
2014,07,10,08,38,17.40
2014,07,10,08,39,17.40
2014,07,10,08,40,17.50
2014,07,10,08,41,17.50
2014,07,10,08,42,17.60
2014,07,10,08,43,17.60
2014,07,10,08,44,17.70
2014,07,10,08,45,17.70
2014,07,10,08,46,17.80
2014,07,10,08,47,17.80
2014,07,10,08,48,17.80
2014,07,10,08,49,17.90
2014,07,10,08,50,17.90
2014,07,10,08,51,17.90
2014,07,10,08,52,17.80
2014,07,10,08,53,17.80
2014,07,10,08,54,17.80
2014,07,10,08,55,17.80
2014,07,10,08,56,17.80
2014,07,10,08,57,17.80
2014,07,10,08,58,17.90
2014,07,10,08,59,17.90
2014,07,10,09,00,18.00
2014,07,10,09,01,18.00
2014,07,10,09,02,18.00
2014,07,10,09,03,18.00
2014,07,10,09,04,18.10
2014,07,10,09,05,18.10
2014,07,10,09,06,18.10
2014,07,10,09,07,18.20
2014,07,10,09,08,18.20
2014,07,10,09,09,18.30
2014,07,10,09,10,18.30
2014,07,10,09,11,18.40
2014,07,10,09,12,18.40
2014,07,10,09,13,18.40
2014,07,10,09,14,18.40
2014,07,10,09,15,18.40
2014,07,10,09,16,18.50
2014,07,10,09,17,18.50
2014,07,10,09,18,18.50
2014,07,10,09,19,18.60
2014,07,10,09,20,18.60
2014,07,10,09,21,18.50
2014,07,10,09,22,18.40
2014,07,10,09,23,18.30
2014,07,10,09,24,18.20
2014,07,10,09,25,18.10
2014,07,10,09,26,18.10
2014,07,10,09,27,18.10
2014,07,10,09,28,18.10
2014,07,10,09,29,18.00
2014,07,10,09,30,18.00
2014,07,10,09,31,18.00
2014,07,10,09,32,17.90
2014,07,10,09,33,17.90
2014,07,10,09,34,17.90
2014,07,10,09,35,18.00
2014,07,10,09,36,18.00
2014,07,10,09,37,18.10
2014,07,10,09,38,18.10
2014,07,10,09,39,18.10
2014,07,10,09,40,18.20
2014,07,10,09,41,18.20
2014,07,10,09,42,18.30
2014,07,10,09,43,18.30
2014,07,10,09,44,18.30
2014,07,10,09,45,18.30
2014,07,10,09,46,18.20
2014,07,10,09,47,18.20
2014,07,10,09,48,18.20
2014,07,10,09,49,18.10
2014,07,10,09,50,18.10
2014,07,10,09,51,18.10
2014,07,10,09,52,18.00
2014,07,10,09,53,18.00
2014,07,10,09,54,18.00
2014,07,10,09,55,17.90
2014,07,10,09,56,17.90
2014,07,10,09,57,17.90
2014,07,10,09,58,17.90
2014,07,10,09,59,17.90
2014,07,10,10,00,17.90
2014,07,10,10,01,18.00
2014,07,10,10,02,18.00
2014,07,10,10,03,18.00
2014,07,10,10,04,18.00
2014,07,10,10,05,17.90
2014,07,10,10,06,17.90
2014,07,10,10,07,17.90
2014,07,10,10,08,17.90
2014,07,10,10,09,17.90
2014,07,10,10,10,17.90
2014,07,10,10,11,17.90
2014,07,10,10,12,18.00
2014,07,10,10,13,18.00
2014,07,10,10,14,18.00
2014,07,10,10,15,18.10
2014,07,10,10,16,18.10
2014,07,10,10,17,18.10
2014,07,10,10,18,18.10
2014,07,10,10,19,18.10
2014,07,10,10,20,18.20
2014,07,10,10,21,18.20
2014,07,10,10,22,18.20
2014,07,10,10,23,18.20
2014,07,10,10,24,18.30
2014,07,10,10,25,18.30
2014,07,10,10,26,18.30
2014,07,10,10,27,18.30
2014,07,10,10,28,18.20
2014,07,10,10,29,18.20
2014,07,10,10,30,18.20
2014,07,10,10,31,18.20
2014,07,10,10,32,18.20
2014,07,10,10,33,18.20
2014,07,10,10,34,18.10
2014,07,10,10,35,18.10
2014,07,10,10,36,18.10
2014,07,10,10,37,18.20
2014,07,10,10,38,18.20
2014,07,10,10,39,18.20
2014,07,10,10,40,18.30
2014,07,10,10,41,18.30
2014,07,10,10,42,18.30
2014,07,10,10,43,18.30
2014,07,10,10,44,18.20
2014,07,10,10,45,18.20
2014,07,10,10,46,18.20
2014,07,10,10,47,18.20
2014,07,10,10,48,18.20
2014,07,10,10,49,18.30
2014,07,10,10,50,18.30
2014,07,10,10,51,18.30
2014,07,10,10,52,18.40
2014,07,10,10,53,18.50
2014,07,10,10,54,18.50
2014,07,10,10,55,18.60
2014,07,10,10,56,18.60
2014,07,10,10,57,18.70
2014,07,10,10,58,18.80
2014,07,10,10,59,18.80
2014,07,10,11,00,18.90
2014,07,10,11,01,18.90
2014,07,10,11,02,18.90
2014,07,10,11,03,19.00
2014,07,10,11,04,19.00
2014,07,10,11,05,19.10
2014,07,10,11,06,19.20
2014,07,10,11,07,19.20
2014,07,10,11,08,19.20
2014,07,10,11,09,19.20
2014,07,10,11,10,19.30
2014,07,10,11,11,19.30
2014,07,10,11,12,19.20
2014,07,10,11,13,19.20
2014,07,10,11,14,19.20
2014,07,10,11,15,19.30
2014,07,10,11,16,19.30
2014,07,10,11,17,19.30
2014,07,10,11,18,19.30
2014,07,10,11,19,19.30
2014,07,10,11,20,19.30
2014,07,10,11,21,19.30
2014,07,10,11,22,19.30
2014,07,10,11,23,19.20
2014,07,10,11,24,19.20
2014,07,10,11,25,19.30
2014,07,10,11,26,19.30
2014,07,10,11,27,19.30
2014,07,10,11,28,19.20
2014,07,10,11,29,19.20
2014,07,10,11,30,19.20
2014,07,10,11,31,19.30
2014,07,10,11,32,19.40
2014,07,10,11,33,19.40
2014,07,10,11,34,19.50
2014,07,10,11,35,19.50
2014,07,10,11,36,19.50
2014,07,10,11,37,19.50
2014,07,10,11,38,19.60
2014,07,10,11,39,19.60
2014,07,10,11,40,19.60
2014,07,10,11,41,19.60
2014,07,10,11,42,19.60
2014,07,10,11,43,19.70
2014,07,10,11,44,19.80
2014,07,10,11,45,19.90
2014,07,10,11,46,20.00
2014,07,10,11,47,20.00
2014,07,10,11,48,20.00
2014,07,10,11,49,19.90
2014,07,10,11,50,19.90
2014,07,10,11,51,19.90
2014,07,10,11,52,19.90
2014,07,10,11,53,19.90
2014,07,10,11,54,20.00
2014,07,10,11,55,20.10
2014,07,10,11,56,20.10
2014,07,10,11,57,20.20
2014,07,10,11,58,20.20
2014,07,10,11,59,20.10
2014,07,10,12,00,20.10
2014,07,10,12,01,20.10
2014,07,10,12,02,20.00
2014,07,10,12,03,20.00
2014,07,10,12,04,20.00
2014,07,10,12,05,20.10
2014,07,10,12,06,20.10
2014,07,10,12,07,20.10
2014,07,10,12,08,20.10
2014,07,10,12,09,20.10
2014,07,10,12,10,20.20
2014,07,10,12,11,20.20
2014,07,10,12,12,20.30
2014,07,10,12,13,20.30
2014,07,10,12,14,20.30
2014,07,10,12,15,20.40
2014,07,10,12,16,20.50
2014,07,10,12,17,20.60
2014,07,10,12,18,20.60
2014,07,10,12,19,20.60
2014,07,10,12,20,20.50
2014,07,10,12,21,20.50
2014,07,10,12,22,20.60
2014,07,10,12,23,20.60
2014,07,10,12,24,20.50
2014,07,10,12,25,20.50
2014,07,10,12,26,20.50
2014,07,10,12,27,20.50
2014,07,10,12,28,20.50
2014,07,10,12,29,20.60
2014,07,10,12,30,20.60
2014,07,10,12,31,20.60
2014,07,10,12,32,20.60
2014,07,10,12,33,20.60
2014,07,10,12,34,20.60
2014,07,10,12,35,20.70
2014,07,10,12,36,20.60
2014,07,10,12,37,20.60
2014,07,10,12,38,20.60
2014,07,10,12,39,20.70
2014,07,10,12,40,20.70
2014,07,10,12,41,20.80
2014,07,10,12,42,20.90
2014,07,10,12,43,21.00
2014,07,10,12,44,21.10
2014,07,10,12,45,21.10
2014,07,10,12,46,21.10
2014,07,10,12,47,21.10
2014,07,10,12,48,21.20
2014,07,10,12,49,21.20
2014,07,10,12,50,21.20
2014,07,10,12,51,21.20
2014,07,10,12,52,21.20
2014,07,10,12,53,21.20
2014,07,10,12,54,21.10
2014,07,10,12,55,21.10
2014,07,10,12,56,21.10
2014,07,10,12,57,21.10
2014,07,10,12,58,21.00
2014,07,10,12,59,21.00
2014,07,10,13,00,21.00
2014,07,10,13,01,21.00
2014,07,10,13,02,21.10
2014,07,10,13,03,21.10
2014,07,10,13,04,21.10
2014,07,10,13,05,21.10
2014,07,10,13,06,21.10
2014,07,10,13,07,21.10
2014,07,10,13,08,21.00
2014,07,10,13,09,21.00
2014,07,10,13,10,20.90
2014,07,10,13,11,20.90
2014,07,10,13,12,20.80
2014,07,10,13,13,20.70
2014,07,10,13,14,20.70
2014,07,10,13,15,20.70
2014,07,10,13,16,20.60
2014,07,10,13,17,20.50
2014,07,10,13,18,20.50
2014,07,10,13,19,20.40
2014,07,10,13,20,20.40
2014,07,10,13,21,20.50
2014,07,10,13,22,20.50
2014,07,10,13,23,20.50
2014,07,10,13,24,20.50
2014,07,10,13,25,20.50
2014,07,10,13,26,20.50
2014,07,10,13,27,20.50
2014,07,10,13,28,20.50
2014,07,10,13,29,20.50
2014,07,10,13,30,20.50
2014,07,10,13,31,20.60
2014,07,10,13,32,20.60
2014,07,10,13,33,20.70
2014,07,10,13,34,20.70
2014,07,10,13,35,20.70
2014,07,10,13,36,20.70
2014,07,10,13,37,20.70
2014,07,10,13,38,20.70
2014,07,10,13,39,20.80
2014,07,10,13,40,20.80
2014,07,10,13,41,20.90
2014,07,10,13,42,21.00
2014,07,10,13,43,21.00
2014,07,10,13,44,21.00
2014,07,10,13,45,20.90
2014,07,10,13,46,20.90
2014,07,10,13,47,20.90
2014,07,10,13,48,20.90
2014,07,10,13,49,20.90
2014,07,10,13,50,21.00
2014,07,10,13,51,21.00
2014,07,10,13,52,21.10
2014,07,10,13,53,21.20
2014,07,10,13,54,21.20
2014,07,10,13,55,21.30
2014,07,10,13,56,21.30
2014,07,10,13,57,21.40
2014,07,10,13,58,21.50
2014,07,10,13,59,21.60
2014,07,10,14,00,21.60
2014,07,10,14,01,21.50
2014,07,10,14,02,21.60
2014,07,10,14,03,21.60
2014,07,10,14,04,21.60
2014,07,10,14,05,21.60
2014,07,10,14,06,21.60
2014,07,10,14,07,21.70
2014,07,10,14,08,21.70
2014,07,10,14,09,21.70
2014,07,10,14,10,21.80
2014,07,10,14,11,21.80
2014,07,10,14,12,21.90
2014,07,10,14,13,22.00
2014,07,10,14,14,22.10
2014,07,10,14,15,22.20
2014,07,10,14,16,22.30
2014,07,10,14,17,22.40
2014,07,10,14,18,22.50
2014,07,10,14,19,22.60
2014,07,10,14,20,22.70
2014,07,10,14,21,22.80
2014,07,10,14,22,22.80
2014,07,10,14,23,22.80
2014,07,10,14,24,22.80
2014,07,10,14,25,22.80
2014,07,10,14,26,22.80
2014,07,10,14,27,22.80
2014,07,10,14,28,22.90
2014,07,10,14,29,22.90
2014,07,10,14,30,22.90
2014,07,10,14,31,22.90
2014,07,10,14,32,22.90
2014,07,10,14,33,22.90
2014,07,10,14,34,23.00
2014,07,10,14,35,23.00
2014,07,10,14,36,23.00
2014,07,10,14,37,23.10
2014,07,10,14,38,23.20
2014,07,10,14,39,23.30
2014,07,10,14,40,23.30
2014,07,10,14,41,23.30
2014,07,10,14,42,23.30
2014,07,10,14,43,23.30
2014,07,10,14,44,23.40
2014,07,10,14,45,23.40
2014,07,10,14,46,23.40
2014,07,10,14,47,23.50
2014,07,10,14,48,23.60
2014,07,10,14,49,23.70
2014,07,10,14,50,23.70
2014,07,10,14,51,23.80
2014,07,10,14,52,23.80
2014,07,10,14,53,23.80
2014,07,10,14,54,23.90
2014,07,10,14,55,23.90
2014,07,10,14,56,23.90
2014,07,10,14,57,23.90
2014,07,10,14,58,23.90
2014,07,10,14,59,23.80
2014,07,10,15,00,23.80
2014,07,10,15,01,23.80
2014,07,10,15,02,23.80
2014,07,10,15,03,23.70
2014,07,10,15,04,23.70
2014,07,10,15,05,23.60
2014,07,10,15,06,23.60
2014,07,10,15,07,23.60
2014,07,10,15,08,23.60
2014,07,10,15,09,23.60
2014,07,10,15,10,23.60
2014,07,10,15,11,23.60
2014,07,10,15,12,23.70
2014,07,10,15,13,23.80
2014,07,10,15,14,23.90
2014,07,10,15,15,24.00
2014,07,10,15,16,24.00
2014,07,10,15,17,24.10
2014,07,10,15,18,24.10
2014,07,10,15,19,24.10
2014,07,10,15,20,24.10
2014,07,10,15,21,24.10
2014,07,10,15,22,24.10
2014,07,10,15,23,24.20
2014,07,10,15,24,24.20
2014,07,10,15,25,24.10
2014,07,10,15,26,24.00
2014,07,10,15,27,23.90
2014,07,10,15,28,23.90
2014,07,10,15,29,23.90
2014,07,10,15,30,23.80
2014,07,10,15,31,23.80
2014,07,10,15,32,23.80
2014,07,10,15,33,23.80
2014,07,10,15,34,23.80
2014,07,10,15,35,23.90
2014,07,10,15,36,23.90
2014,07,10,15,37,23.90
2014,07,10,15,38,23.90
2014,07,10,15,39,23.90
2014,07,10,15,40,23.90
2014,07,10,15,41,24.00
2014,07,10,15,42,24.00
2014,07,10,15,43,23.90
2014,07,10,15,44,23.80
2014,07,10,15,45,23.80
2014,07,10,15,46,23.80
2014,07,10,15,47,23.90
2014,07,10,15,48,23.90
2014,07,10,15,49,23.90
2014,07,10,15,50,24.00
2014,07,10,15,51,23.90
2014,07,10,15,52,23.90
2014,07,10,15,53,23.90
2014,07,10,15,54,23.90
2014,07,10,15,55,23.80
2014,07,10,15,56,23.80
2014,07,10,15,57,23.80
2014,07,10,15,58,23.80
2014,07,10,15,59,23.80
2014,07,10,16,00,23.80
2014,07,10,16,01,23.80
2014,07,10,16,02,23.90
2014,07,10,16,03,24.00
2014,07,10,16,04,24.00
2014,07,10,16,05,24.10
2014,07,10,16,06,24.10
2014,07,10,16,07,24.10
2014,07,10,16,08,24.10
2014,07,10,16,09,24.10
2014,07,10,16,10,24.10
2014,07,10,16,11,24.10
2014,07,10,16,12,24.20
2014,07,10,16,13,24.20
2014,07,10,16,14,24.30
2014,07,10,16,15,24.30
2014,07,10,16,16,24.40
2014,07,10,16,17,24.40
2014,07,10,16,18,24.40
2014,07,10,16,19,24.40
2014,07,10,16,20,24.40
2014,07,10,16,21,24.40
2014,07,10,16,22,24.30
2014,07,10,16,23,24.30
2014,07,10,16,24,24.30
2014,07,10,16,25,24.30
2014,07,10,16,26,24.20
2014,07,10,16,27,24.20
2014,07,10,16,28,24.20
2014,07,10,16,29,24.30
2014,07,10,16,30,24.30
2014,07,10,16,31,24.20
2014,07,10,16,32,24.20
2014,07,10,16,33,24.20
2014,07,10,16,34,24.30
2014,07,10,16,35,24.30
2014,07,10,16,36,24.30
2014,07,10,16,37,24.40
2014,07,10,16,38,24.50
2014,07,10,16,39,24.60
2014,07,10,16,40,24.60
2014,07,10,16,41,24.60
2014,07,10,16,42,24.60
2014,07,10,16,43,24.60
2014,07,10,16,44,24.60
2014,07,10,16,45,24.70
2014,07,10,16,46,24.70
2014,07,10,16,47,24.60
2014,07,10,16,48,24.60
2014,07,10,16,49,24.50
2014,07,10,16,50,24.50
2014,07,10,16,51,24.50
2014,07,10,16,52,24.50
2014,07,10,16,53,24.60
2014,07,10,16,54,24.70
2014,07,10,16,55,24.70
2014,07,10,16,56,24.80
2014,07,10,16,57,24.80
2014,07,10,16,58,24.80
2014,07,10,16,59,24.70
2014,07,10,17,00,24.60
2014,07,10,17,01,24.50
2014,07,10,17,02,24.50
2014,07,10,17,03,24.40
2014,07,10,17,04,24.40
2014,07,10,17,05,24.40
2014,07,10,17,06,24.40
2014,07,10,17,07,24.40
2014,07,10,17,08,24.40
2014,07,10,17,09,24.40
2014,07,10,17,10,24.40
2014,07,10,17,11,24.40
2014,07,10,17,12,24.40
2014,07,10,17,13,24.40
2014,07,10,17,14,24.30
2014,07,10,17,15,24.30
2014,07,10,17,16,24.30
2014,07,10,17,17,24.20
2014,07,10,17,18,24.10
2014,07,10,17,19,24.00